Location: Newark
(33.6439°N, 114.9881°W)
Time: 20:10:02
(UTC+00:00)

Tiros 1 - Pass Details

Date: 28 July 2019
Orbit: 631 x 664 km, 48.4° (Epoch: 25 August)

Event Time Altitude Azimuth Distance (km) Brightness Sun altitude
Rises 18:39:47 0° 284° (WNW) 2,977 10.4 69.1°
Reaches altitude 10° 18:42:54 10° 305° (NW) 2,072 9.7 69.6°
Maximum altitude 18:46:01 17° 345° (NNW) 1,660 9.3 70.0°
Drops below altitude 10° 18:49:09 10° 26° (NNE) 2,081 9.8 70.5°
Sets 18:52:17 0° 47° (NE) 2,996 10.6 70.9°
